QPF
0.00 0.00 0.00 0.01 0.01 0.01 0.01 0.01 0.01 0.01 0.01 0.01 0.02 0.03 0.04 0.03 0.03 0.03 0.03 0.04 0.05 0.06 0.07 0.06 0.05 0.04 0.06 0.06 0.06 0.07 0.10 0.12 0.08 0.05 0.03 0.03 0.02 0.02 0.02 0.04 0.06 0.06 0.08 0.07
0.00 0.00 0.00 0.00 0.00 0.00 0.01 0.01 0.01 0.01 0.01 0.01 0.01 0.03 0.03 0.03 0.03 0.03 0.04 0.05 0.06 0.07 0.08 0.07 0.06 0.05 0.06 0.06 0.06 0.06 0.09 0.12 0.12 0.08 0.04 0.03 0.03 0.03 0.04 0.06 0.07 0.06 0.07 0.08
0.01 0.00 0.00 0.00 0.00 0.00 0.00 0.00 0.00 0.00 0.00 0.00 0.00 0.01 0.03 0.04 0.04 0.04 0.04 0.05 0.06 0.07 0.08 0.08 0.06 0.06 0.06 0.06 0.06 0.06 0.07 0.09 0.10 0.11 0.08 0.05 0.04 0.06 0.08 0.09 0.07 0.06 0.08 0.11
0.01 0.00 0.01 0.00 0.00 0.00 0.00 0.00 0.01 0.00 0.00 0.00 0.00 0.01 0.02 0.04 0.05 0.05 0.04 0.05 0.06 0.07 0.08 0.08 0.07 0.07 0.06 0.05 0.06 0.06 0.07 0.09 0.11 0.13 0.12 0.10 0.10 0.10 0.11 0.11 0.10 0.09 0.11 0.13
0.02 0.01 0.00 0.00 0.00 0.00 0.01 0.00 0.00 0.00 0.00 0.00 0.00 0.00 0.01 0.02 0.03 0.05 0.05 0.05 0.06 0.07 0.07 0.09 0.08 0.07 0.07 0.05 0.05 0.06 0.07 0.09 0.11 0.14 0.13 0.13 0.14 0.12 0.11 0.09 0.08 0.08 0.09 0.11
0.02 0.02 0.01 0.01 0.01 0.01 0.01 0.01 0.00 0.00 0.00 0.00 0.00 0.01 0.01 0.01 0.01 0.02 0.04 0.04 0.04 0.05 0.06 0.07 0.08 0.08 0.07 0.06 0.05 0.06 0.07 0.08 0.09 0.11 0.12 0.11 0.12 0.11 0.10 0.10 0.09 0.09 0.07 0.08
0.02 0.02 0.01 0.01 0.01 0.01 0.01 0.01 0.00 0.00 0.00 0.00 0.00 0.01 0.01 0.01 0.01 0.01 0.02 0.03 0.03 0.04 0.05 0.06 0.07 0.08 0.07 0.07 0.07 0.06 0.07 0.07 0.09 0.09 0.11 0.11 0.08 0.07 0.07 0.08 0.10 0.12 0.09 0.08
0.02 0.02 0.02 0.01 0.01 0.02 0.02 0.01 0.00 0.00 0.00 0.00 0.00 0.00 0.00 0.01 0.01 0.01 0.01 0.01 0.01 0.02 0.03 0.04 0.05 0.07 0.07 0.07 0.07 0.07 0.06 0.06 0.07 0.09 0.10 0.13 0.11 0.07 0.07 0.07 0.10 0.14 0.10 0.08
0.02 0.02 0.02 0.02 0.02 0.02 0.02 0.01 0.01 0.01 0.00 0.00 0.00 0.00 0.00 0.00 0.01 0.01 0.01 0.01 0.01 0.01 0.02 0.02 0.04 0.05 0.07 0.06 0.06 0.07 0.07 0.07 0.06 0.07 0.09 0.12 0.13 0.11 0.10 0.09 0.10 0.13 0.11 0.09
0.02 0.02 0.01 0.01 0.01 0.01 0.01 0.01 0.01 0.01 0.01 0.01 0.00 0.00 0.00 0.00 0.01 0.01 0.01 0.01 0.01 0.01 0.01 0.01 0.02 0.03 0.04 0.05 0.05 0.05 0.06 0.07 0.06 0.06 0.07 0.09 0.11 0.12 0.12 0.12 0.12 0.13 0.11 0.10
0.01 0.01 0.01 0.01 0.01 0.01 0.01 0.01 0.00 0.00 0.01 0.01 0.00 0.00 0.00 0.00 0.01 0.01 0.01 0.01 0.01 0.01 0.01 0.01 0.01 0.01 0.02 0.03 0.03 0.04 0.04 0.05 0.06 0.07 0.08 0.09 0.10 0.11 0.11 0.11 0.11 0.12 0.10 0.09
0.01 0.01 0.01 0.01 0.01 0.00 0.00 0.00 0.00 0.00 0.00 0.00 0.00 0.00 0.00 0.00 0.01 0.01 0.01 0.01 0.01 0.01 0.01 0.01 0.01 0.01 0.02 0.02 0.02 0.03 0.04 0.05 0.06 0.07 0.07 0.07 0.08 0.10 0.11 0.10 0.08 0.08 0.09 0.08
0.01 0.01 0.01 0.01 0.00 0.00 0.00 0.00 0.00 0.00 0.00 0.00 0.00 0.00 0.00 0.00 0.01 0.01 0.01 0.01 0.02 0.02 0.01 0.02 0.02 0.02 0.02 0.02 0.02 0.02 0.04 0.05 0.05 0.06 0.06 0.07 0.07 0.07 0.09 0.09 0.07 0.06 0.07 0.07
0.01 0.01 0.00 0.00 0.00 0.00 0.00 0.00 0.00 0.00 0.00 0.00 0.00 0.00 0.00 0.00 0.00 0.00 0.01 0.01 0.02 0.02 0.02 0.02 0.02 0.02 0.02 0.02 0.03 0.03 0.04 0.05 0.05 0.06 0.06 0.06 0.06 0.06 0.06 0.06 0.06 0.05 0.05 0.05
0.00 0.00 0.00 0.00 0.00 0.00 0.00 0.00 0.00 0.00 0.00 0.00 0.00 0.00 0.00 0.00 0.00 0.00 0.01 0.01 0.01 0.01 0.02 0.02 0.02 0.02 0.03 0.03 0.04 0.04 0.04 0.04 0.04 0.05 0.05 0.05 0.05 0.04 0.05 0.05 0.05 0.05 0.05 0.05
0.00 0.00 0.00 0.00 0.00 0.00 0.00 0.00 0.00 0.00 0.00 0.00 0.00 0.00 0.00 0.00 0.00 0.00 0.00 0.01 0.01 0.01 0.02 0.02 0.03 0.03 0.04 0.04 0.05 0.05 0.05 0.05 0.05 0.04 0.04 0.04 0.04 0.04 0.04 0.04 0.04 0.04 0.05 0.05
0.00 0.00 0.00 0.00 0.00 0.01 0.01 0.01 0.01 0.01 0.00 0.00 0.00 0.00 0.00 0.00 0.00 0.00 0.00 0.01 0.01 0.01 0.01 0.02 0.02 0.03 0.04 0.05 0.06 0.06 0.05 0.05 0.04 0.04 0.04 0.04 0.04 0.05 0.04 0.04 0.04 0.04 0.05 0.06
0.01 0.00 0.00 0.01 0.01 0.01 0.01 0.01 0.01 0.00 0.00 0.00 0.00 0.00 0.00 0.00 0.00 0.00 0.01 0.01 0.01 0.01 0.01 0.01 0.02 0.02 0.03 0.04 0.05 0.05 0.04 0.04 0.04 0.03 0.03 0.03 0.03 0.04 0.04 0.04 0.04 0.04 0.04 0.05
0.00 0.01 0.01 0.01 0.01 0.01 0.01 0.01 0.00 0.00 0.00 0.00 0.00 0.00 0.00 0.00 0.00 0.01 0.01 0.01 0.01 0.01 0.01 0.01 0.01 0.01 0.02 0.03 0.04 0.04 0.03 0.03 0.03 0.03 0.03 0.02 0.02 0.02 0.03 0.03 0.03 0.03 0.03 0.03
0.00 0.01 0.01 0.01 0.01 0.01 0.01 0.00 0.00 0.00 0.00 0.00 0.00 0.00 0.00 0.00 0.00 0.01 0.01 0.01 0.01 0.02 0.02 0.02 0.01 0.02 0.02 0.03 0.03 0.03 0.02 0.02 0.02 0.02 0.02 0.02 0.01 0.02 0.02 0.02 0.02 0.02 0.02 0.02
0.01 0.01 0.01 0.01 0.01 0.01 0.01 0.00 0.00 0.00 0.00 0.00 0.00 0.00 0.00 0.00 0.00 0.01 0.01 0.01 0.01 0.01 0.01 0.01 0.01 0.02 0.02 0.02 0.02 0.01 0.01 0.01 0.01 0.01 0.01 0.01 0.01 0.01 0.01 0.01 0.01 0.01 0.01 0.02
0.01 0.01 0.01 0.01 0.01 0.01 0.01 0.00 0.00 0.00 0.00 0.00 0.00 0.00 0.00 0.00 0.01 0.01 0.01 0.01 0.01 0.01 0.01 0.01 0.01 0.01 0.02 0.02 0.01 0.01 0.01 0.01 0.01 0.01 0.01 0.01 0.01 0.01 0.01 0.01 0.01 0.01 0.01 0.01
0.01 0.01 0.01 0.01 0.01 0.01 0.01 0.00 0.00 0.00 0.00 0.01 0.01 0.01 0.01 0.00 0.01 0.01 0.01 0.01 0.01 0.02 0.01 0.01 0.01 0.01 0.01 0.01 0.01 0.01 0.01 0.01 0.00 0.00 0.01 0.01 0.01 0.01 0.01 0.01 0.01 0.01 0.01 0.01
0.01 0.01 0.01 0.01 0.01 0.01 0.00 0.00 0.01 0.01 0.01 0.01 0.01 0.01 0.01 0.01 0.01 0.01 0.01 0.02 0.02 0.02 0.02 0.01 0.01 0.01 0.01 0.01 0.00 0.00 0.00 0.01 0.01 0.00 0.00 0.00 0.00 0.01 0.01 0.01 0.01 0.01 0.01 0.01
0.00 0.01 0.01 0.01 0.01 0.01 0.01 0.01 0.01 0.00 0.00 0.00 0.00 0.00 0.01 0.01 0.01 0.01 0.01 0.01 0.01 0.02 0.02 0.01 0.01 0.01 0.01 0.00 0.00 0.00 0.00 0.00 0.01 0.01 0.00 0.00 0.00 0.00 0.00 0.01 0.01 0.01 0.01 0.01
0.00 0.01 0.01 0.01 0.01 0.01 0.01 0.01 0.01 0.01 0.01 0.01 0.01 0.00 0.01 0.01 0.01 0.01 0.01 0.01 0.02 0.02 0.02 0.02 0.01 0.01 0.01 0.00 0.00 0.00 0.00 0.00 0.00 0.00 0.00 0.00 0.00 0.00 0.00 0.00 0.00 0.01 0.01 0.01
0.00 0.00 0.00 0.00 0.00 0.01 0.01 0.01 0.01 0.01 0.01 0.01 0.01 0.01 0.01 0.01 0.01 0.01 0.01 0.01 0.02 0.02 0.02 0.02 0.01 0.01 0.01 0.01 0.01 0.01 0.01 0.01 0.01 0.00 0.00 0.00 0.00 0.00 0.00 0.01 0.01 0.01 0.01 0.01
MSLP
1027.47 1027.40 1027.24 1027.01 1026.74 1026.46 1026.23 1026.06 1025.98 1025.98 1026.05 1026.15 1026.23 1026.26 1026.18 1025.97 1025.63 1025.16 1024.58 1023.94 1023.28 1022.65 1022.06 1021.55 1021.11 1020.74 1020.40 1020.08 1019.75 1019.41 1019.04 1018.65 1018.26 1017.89 1017.56 1017.28 1017.07 1016.94 1016.87 1016.87 1016.93 1017.05 1017.21 1017.43
1028.44 1028.42 1028.28 1028.04 1027.74 1027.42 1027.12 1026.87 1026.70 1026.61 1026.59 1026.60 1026.61 1026.57 1026.43 1026.17 1025.78 1025.26 1024.64 1023.96 1023.26 1022.59 1021.98 1021.45 1021.00 1020.61 1020.26 1019.93 1019.60 1019.23 1018.84 1018.41 1017.97 1017.53 1017.11 1016.74 1016.44 1016.20 1016.05 1015.96 1015.95 1016.00 1016.12 1016.31
1029.28 1029.24 1029.08 1028.80 1028.45 1028.07 1027.70 1027.38 1027.13 1026.97 1026.87 1026.82 1026.76 1026.66 1026.46 1026.14 1025.70 1025.13 1024.46 1023.74 1023.01 1022.31 1021.68 1021.14 1020.68 1020.30 1019.97 1019.65 1019.33 1018.97 1018.56 1018.11 1017.63 1017.14 1016.66 1016.21 1015.82 1015.49 1015.24 1015.06 1014.97 1014.96 1015.03 1015.18
1029.91 1029.81 1029.57 1029.23 1028.81 1028.36 1027.93 1027.55 1027.26 1027.04 1026.90 1026.80 1026.69 1026.53 1026.28 1025.91 1025.41 1024.79 1024.07 1023.30 1022.53 1021.81 1021.17 1020.62 1020.17 1019.80 1019.49 1019.20 1018.90 1018.55 1018.16 1017.71 1017.21 1016.68 1016.15 1015.63 1015.16 1014.75 1014.42 1014.16 1013.99 1013.91 1013.93 1014.04
1030.30 1030.08 1029.73 1029.29 1028.79 1028.28 1027.80 1027.39 1027.07 1026.84 1026.68 1026.56 1026.43 1026.23 1025.94 1025.53 1024.97 1024.30 1023.53 1022.72 1021.91 1021.16 1020.49 1019.93 1019.48 1019.13 1018.84 1018.57 1018.30 1017.98 1017.60 1017.15 1016.65 1016.09 1015.53 1014.96 1014.43 1013.95 1013.55 1013.22 1012.99 1012.85 1012.82 1012.89
1030.41 1030.03 1029.55 1029.00 1028.42 1027.86 1027.36 1026.95 1026.63 1026.42 1026.27 1026.15 1026.02 1025.81 1025.49 1025.05 1024.45 1023.73 1022.92 1022.07 1021.22 1020.43 1019.74 1019.17 1018.71 1018.35 1018.07 1017.82 1017.55 1017.25 1016.88 1016.44 1015.93 1015.36 1014.77 1014.17 1013.59 1013.06 1012.60 1012.23 1011.94 1011.76 1011.69 1011.73
1030.21 1029.67 1029.06 1028.40 1027.76 1027.17 1026.66 1026.26 1025.98 1025.80 1025.69 1025.61 1025.49 1025.30 1024.98 1024.52 1023.90 1023.16 1022.32 1021.43 1020.55 1019.73 1019.01 1018.41 1017.93 1017.55 1017.25 1016.99 1016.72 1016.41 1016.03 1015.59 1015.07 1014.49 1013.87 1013.25 1012.64 1012.08 1011.59 1011.17 1010.86 1010.65 1010.56 1010.59
1029.71 1029.02 1028.28 1027.54 1026.85 1026.24 1025.75 1025.40 1025.17 1025.04 1024.99 1024.95 1024.88 1024.72 1024.42 1023.97 1023.36 1022.61 1021.76 1020.86 1019.96 1019.12 1018.37 1017.73 1017.21 1016.79 1016.45 1016.15 1015.85 1015.51 1015.11 1014.64 1014.10 1013.50 1012.87 1012.23 1011.61 1011.04 1010.52 1010.10 1009.77 1009.55 1009.46 1009.49
1028.91 1028.09 1027.26 1026.46 1025.74 1025.15 1024.69 1024.38 1024.21 1024.16 1024.17 1024.20 1024.18 1024.07 1023.82 1023.41 1022.84 1022.12 1021.29 1020.40 1019.50 1018.64 1017.86 1017.18 1016.61 1016.13 1015.73 1015.36 1014.99 1014.60 1014.15 1013.65 1013.08 1012.46 1011.82 1011.17 1010.55 1009.97 1009.46 1009.04 1008.72 1008.52 1008.43 1008.48
1027.82 1026.91 1026.03 1025.21 1024.50 1023.93 1023.52 1023.27 1023.17 1023.18 1023.26 1023.36 1023.41 1023.37 1023.19 1022.85 1022.34 1021.68 1020.90 1020.05 1019.16 1018.30 1017.50 1016.78 1016.14 1015.59 1015.09 1014.64 1014.18 1013.71 1013.20 1012.65 1012.05 1011.41 1010.76 1010.12 1009.51 1008.95 1008.47 1008.07 1007.78 1007.61 1007.56 1007.63
1026.49 1025.55 1024.65 1023.85 1023.17 1022.65 1022.30 1022.11 1022.08 1022.16 1022.31 1022.47 1022.60 1022.63 1022.53 1022.27 1021.85 1021.27 1020.57 1019.77 1018.93 1018.07 1017.25 1016.48 1015.77 1015.12 1014.53 1013.97 1013.42 1012.86 1012.28 1011.67 1011.04 1010.40 1009.75 1009.13 1008.55 1008.04 1007.60 1007.25 1007.01 1006.89 1006.88 1007.01
1024.99 1024.06 1023.20 1022.45 1021.83 1021.38 1021.10 1020.99 1021.01 1021.15 1021.36 1021.59 1021.78 1021.89 1021.87 1021.71 1021.38 1020.90 1020.27 1019.54 1018.73 1017.89 1017.04 1016.22 1015.43 1014.68 1013.98 1013.31 1012.66 1012.01 1011.37 1010.72 1010.08 1009.44 1008.83 1008.25 1007.73 1007.28 1006.91 1006.64 1006.47 1006.41 1006.47 1006.66
1023.41 1022.54 1021.76 1021.10 1020.58 1020.22 1020.02 1019.97 1020.06 1020.26 1020.51 1020.79 1021.04 1021.21 1021.27 1021.18 1020.94 1020.54 1019.99 1019.30 1018.52 1017.68 1016.80 1015.91 1015.03 1014.18 1013.37 1012.59 1011.85 1011.13 1010.45 1009.79 1009.16 1008.56 1008.01 1007.51 1007.08 1006.72 1006.45 1006.27 1006.19 1006.21 1006.35 1006.60
1021.85 1021.09 1020.43 1019.90 1019.50 1019.25 1019.15 1019.18 1019.33 1019.56 1019.85 1020.17 1020.45 1020.66 1020.76 1020.73 1020.54 1020.19 1019.68 1019.02 1018.24 1017.36 1016.43 1015.46 1014.50 1013.55 1012.63 1011.77 1010.96 1010.20 1009.50 1008.87 1008.29 1007.77 1007.32 1006.93 1006.62 1006.39 1006.23 1006.16 1006.18 1006.30 1006.51 1006.83
1020.45 1019.83 1019.33 1018.94 1018.69 1018.57 1018.57 1018.68 1018.88 1019.14 1019.46 1019.77 1020.05 1020.27 1020.38 1020.36 1020.17 1019.83 1019.31 1018.64 1017.82 1016.89 1015.89 1014.84 1013.78 1012.74 1011.74 1010.82 1009.97 1009.21 1008.55 1007.97 1007.49 1007.09 1006.77 1006.53 1006.37 1006.28 1006.26 1006.32 1006.45 1006.66 1006.96 1007.34
1019.30 1018.85 1018.53 1018.32 1018.23 1018.24 1018.34 1018.52 1018.75 1019.04 1019.33 1019.62 1019.87 1020.04 1020.11 1020.04 1019.82 1019.43 1018.86 1018.12 1017.24 1016.23 1015.14 1014.00 1012.86 1011.75 1010.71 1009.76 1008.92 1008.20 1007.61 1007.15 1006.80 1006.56 1006.41 1006.34 1006.35 1006.42 1006.55 1006.73 1006.98 1007.29 1007.66 1008.10
1018.49 1018.23 1018.09 1018.06 1018.13 1018.26 1018.45 1018.68 1018.94 1019.20 1019.46 1019.68 1019.85 1019.93 1019.90 1019.74 1019.43 1018.94 1018.28 1017.45 1016.48 1015.38 1014.21 1013.00 1011.80 1010.65 1009.60 1008.67 1007.88 1007.26 1006.79 1006.47 1006.29 1006.23 1006.26 1006.39 1006.57 1006.80 1007.08 1007.39 1007.74 1008.13 1008.57 1009.05
1018.06 1017.99 1018.04 1018.17 1018.38 1018.61 1018.86 1019.12 1019.35 1019.56 1019.73 1019.84 1019.89 1019.84 1019.68 1019.38 1018.94 1018.33 1017.56 1016.63 1015.56 1014.39 1013.15 1011.90 1010.69 1009.55 1008.53 1007.67 1006.98 1006.48 1006.17 1006.02 1006.03 1006.16 1006.39 1006.70 1007.05 1007.43 1007.84 1008.26 1008.70 1009.16 1009.64 1010.14
1018.02 1018.12 1018.33 1018.61 1018.91 1019.21 1019.47 1019.70 1019.87 1019.98 1020.02 1019.99 1019.87 1019.66 1019.34 1018.89 1018.30 1017.57 1016.69 1015.67 1014.54 1013.32 1012.07 1010.83 1009.65 1008.58 1007.65 1006.90 1006.36 1006.02 1005.88 1005.92 1006.11 1006.42 1006.83 1007.29 1007.79 1008.30 1008.81 1009.31 1009.80 1010.30 1010.80 1011.31
1018.30 1018.57 1018.90 1019.27 1019.62 1019.92 1020.15 1020.30 1020.35 1020.32 1020.20 1019.99 1019.69 1019.30 1018.82 1018.22 1017.50 1016.67 1015.71 1014.65 1013.50 1012.31 1011.10 1009.93 1008.84 1007.89 1007.10 1006.51 1006.13 1005.97 1006.00 1006.21 1006.57 1007.04 1007.58 1008.17 1008.77 1009.35 1009.92 1010.47 1010.99 1011.49 1011.98 1012.47
1018.85 1019.23 1019.65 1020.05 1020.40 1020.65 1020.78 1020.80 1020.70 1020.49 1020.18 1019.79 1019.31 1018.75 1018.11 1017.40 1016.59 1015.70 1014.72 1013.67 1012.58 1011.46 1010.36 1009.32 1008.39 1007.60 1006.98 1006.57 1006.37 1006.38 1006.57 1006.93 1007.41 1007.99 1008.62 1009.28 1009.93 1010.55 1011.13 1011.68 1012.19 1012.67 1013.13 1013.57
1019.56 1020.03 1020.48 1020.86 1021.14 1021.29 1021.28 1021.13 1020.85 1020.45 1019.95 1019.37 1018.73 1018.04 1017.29 1016.50 1015.66 1014.77 1013.83 1012.86 1011.88 1010.90 1009.97 1009.11 1008.37 1007.78 1007.36 1007.13 1007.10 1007.25 1007.57 1008.03 1008.60 1009.23 1009.90 1010.56 1011.21 1011.81 1012.36 1012.87 1013.33 1013.76 1014.16 1014.54
1020.35 1020.86 1021.30 1021.62 1021.79 1021.79 1021.62 1021.29 1020.82 1020.23 1019.56 1018.83 1018.06 1017.27 1016.47 1015.66 1014.85 1014.02 1013.18 1012.35 1011.53 1010.74 1010.01 1009.37 1008.84 1008.45 1008.22 1008.16 1008.27 1008.53 1008.94 1009.45 1010.04 1010.67 1011.31 1011.94 1012.52 1013.06 1013.54 1013.97 1014.36 1014.71 1015.03 1015.34
1021.14 1021.65 1022.04 1022.27 1022.32 1022.16 1021.82 1021.31 1020.67 1019.93 1019.12 1018.28 1017.44 1016.61 1015.82 1015.04 1014.30 1013.59 1012.90 1012.24 1011.61 1011.03 1010.52 1010.09 1009.76 1009.56 1009.49 1009.57 1009.78 1010.11 1010.55 1011.06 1011.62 1012.21 1012.77 1013.31 1013.80 1014.24 1014.61 1014.94 1015.23 1015.49 1015.72 1015.94
1021.87 1022.35 1022.68 1022.80 1022.72 1022.42 1021.93 1021.28 1020.51 1019.66 1018.77 1017.88 1017.03 1016.22 1015.47 1014.78 1014.16 1013.59 1013.06 1012.59 1012.16 1011.78 1011.46 1011.22 1011.07 1011.02 1011.07 1011.23 1011.50 1011.85 1012.28 1012.75 1013.24 1013.73 1014.19 1014.61 1014.97 1015.28 1015.54 1015.76 1015.93 1016.08 1016.22 1016.35
1022.49 1022.94 1023.19 1023.22 1023.02 1022.61 1022.01 1021.27 1020.43 1019.54 1018.63 1017.76 1016.94 1016.20 1015.55 1014.98 1014.49 1014.07 1013.71 1013.40 1013.14 1012.93 1012.77 1012.67 1012.64 1012.69 1012.81 1013.01 1013.28 1013.61 1013.99 1014.38 1014.77 1015.14 1015.48 1015.76 1015.99 1016.17 1016.30 1016.39 1016.45 1016.50 1016.53 1016.56
1023.00 1023.39 1023.57 1023.52 1023.25 1022.77 1022.13 1021.36 1020.52 1019.65 1018.79 1017.99 1017.26 1016.63 1016.09 1015.65 1015.29 1015.01 1014.78 1014.61 1014.47 1014.38 1014.32 1014.31 1014.34 1014.43 1014.57 1014.76 1015.00 1015.27 1015.56 1015.86 1016.14 1016.38 1016.59 1016.74 1016.84 1016.89 1016.89 1016.86 1016.81 1016.75 1016.68 1016.62
Thickness
5357 5361 5356 5356 5355 5351 5345 5347 5349 5361 5360 5369 5364 5361 5360 5361 5363 5363 5363 5364 5365 5367 5368 5370 5373 5378 5382 5386 5391 5396 5400 5404 5409 5414 5419 5424 5428 5432 5435 5438 5442 5445 5449 5453
5346 5352 5348 5351 5355 5349 5347 5345 5343 5349 5354 5356 5353 5351 5350 5349 5350 5351 5351 5352 5354 5356 5358 5360 5363 5366 5370 5374 5381 5386 5389 5394 5400 5404 5410 5414 5419 5423 5427 5430 5433 5436 5440 5444
5335 5335 5338 5341 5344 5344 5340 5336 5335 5340 5346 5342 5342 5343 5340 5338 5337 5337 5338 5339 5342 5343 5346 5349 5352 5355 5358 5363 5369 5374 5379 5385 5390 5396 5401 5405 5410 5414 5418 5421 5424 5427 5431 5435
5318 5320 5326 5345 5339 5338 5334 5329 5324 5326 5328 5328 5330 5330 5329 5328 5325 5325 5326 5328 5330 5333 5336 5338 5341 5344 5349 5353 5358 5363 5369 5374 5380 5386 5392 5397 5402 5406 5409 5413 5416 5419 5422 5427
5306 5304 5318 5333 5330 5323 5320 5322 5318 5316 5320 5320 5319 5321 5322 5321 5317 5316 5316 5318 5319 5322 5325 5328 5331 5335 5339 5343 5347 5352 5359 5364 5369 5376 5382 5389 5393 5397 5401 5404 5407 5410 5413 5418
5295 5300 5310 5327 5321 5315 5313 5315 5314 5309 5309 5309 5309 5308 5313 5313 5310 5309 5309 5310 5312 5314 5316 5319 5322 5325 5329 5332 5336 5341 5346 5353 5360 5365 5373 5379 5384 5389 5392 5396 5399 5402 5406 5409
5284 5286 5302 5310 5307 5307 5308 5312 5307 5301 5299 5297 5295 5297 5300 5300 5300 5300 5301 5302 5304 5305 5308 5310 5313 5316 5319 5323 5327 5332 5338 5345 5351 5357 5363 5370 5375 5380 5384 5388 5391 5394 5398 5401
5275 5277 5297 5303 5298 5298 5300 5298 5294 5293 5291 5288 5288 5289 5289 5290 5291 5292 5293 5295 5297 5298 5300 5302 5304 5307 5311 5315 5320 5325 5331 5337 5343 5350 5356 5362 5366 5371 5375 5379 5383 5386 5390 5394
5284 5295 5297 5290 5290 5291 5287 5285 5285 5284 5283 5281 5280 5280 5281 5281 5282 5283 5285 5287 5289 5290 5293 5295 5296 5298 5302 5307 5312 5317 5323 5329 5335 5342 5348 5352 5356 5361 5366 5370 5374 5379 5383 5387
5277 5285 5285 5282 5281 5281 5279 5277 5277 5276 5274 5272 5271 5271 5271 5273 5275 5276 5277 5279 5280 5282 5285 5287 5289 5291 5294 5298 5303 5309 5315 5321 5327 5333 5339 5343 5347 5352 5356 5360 5365 5369 5373 5377
5272 5275 5275 5279 5277 5276 5275 5272 5271 5269 5267 5265 5264 5264 5264 5264 5266 5267 5270 5271 5272 5273 5276 5278 5282 5285 5288 5291 5295 5301 5307 5313 5319 5324 5329 5334 5337 5341 5346 5350 5354 5358 5362 5366
5273 5273 5270 5273 5273 5270 5268 5267 5265 5263 5262 5260 5258 5257 5257 5257 5258 5259 5261 5263 5264 5266 5269 5272 5274 5277 5281 5284 5287 5292 5299 5304 5309 5314 5319 5324 5328 5332 5336 5340 5345 5349 5352 5355
5268 5266 5264 5265 5264 5262 5260 5260 5259 5257 5255 5254 5253 5251 5251 5251 5252 5252 5254 5255 5257 5259 5261 5264 5267 5270 5273 5276 5281 5285 5290 5295 5300 5305 5309 5313 5318 5323 5327 5331 5335 5338 5342 5346
5259 5257 5257 5257 5256 5255 5253 5252 5251 5250 5248 5247 5245 5245 5245 5245 5246 5246 5247 5248 5250 5253 5255 5257 5260 5264 5267 5270 5274 5278 5281 5286 5291 5295 5299 5304 5308 5312 5316 5320 5324 5327 5330 5335
5253 5251 5250 5249 5248 5247 5245 5244 5242 5241 5241 5240 5239 5238 5238 5238 5239 5241 5242 5243 5244 5246 5248 5251 5253 5257 5260 5264 5267 5271 5274 5278 5282 5286 5290 5294 5298 5302 5306 5309 5312 5315 5319 5322
5246 5244 5242 5241 5240 5239 5237 5235 5234 5234 5233 5233 5232 5232 5232 5232 5233 5234 5235 5236 5237 5239 5241 5243 5246 5250 5253 5257 5261 5264 5267 5271 5276 5278 5282 5285 5288 5291 5295 5298 5301 5303 5305 5309
5237 5238 5236 5234 5233 5231 5229 5228 5226 5226 5225 5225 5225 5226 5226 5226 5227 5228 5229 5230 5231 5232 5235 5237 5240 5244 5247 5250 5253 5256 5259 5263 5267 5270 5272 5275 5278 5280 5283 5286 5288 5290 5292 5296
5231 5231 5229 5227 5225 5224 5223 5221 5220 5219 5218 5219 5219 5219 5219 5218 5219 5220 5222 5223 5224 5227 5229 5231 5234 5238 5240 5243 5245 5248 5251 5254 5257 5260 5263 5265 5267 5270 5271 5274 5276 5278 5281 5284
5225 5224 5222 5221 5219 5217 5215 5214 5214 5213 5212 5212 5212 5212 5212 5212 5212 5213 5214 5215 5217 5220 5223 5225 5229 5231 5233 5235 5239 5241 5243 5245 5247 5250 5252 5255 5257 5258 5260 5262 5264 5267 5269 5272
5219 5218 5216 5215 5213 5211 5209 5209 5207 5206 5206 5205 5205 5205 5205 5206 5206 5207 5208 5209 5210 5212 5215 5218 5221 5223 5226 5228 5231 5232 5234 5236 5237 5239 5241 5243 5245 5247 5248 5251 5253 5255 5258 5260
5211 5210 5209 5207 5206 5204 5203 5202 5201 5200 5200 5200 5199 5199 5199 5200 5200 5200 5201 5204 5206 5207 5209 5212 5213 5215 5218 5220 5222 5223 5225 5226 5228 5229 5231 5232 5234 5236 5237 5239 5242 5244 5246 5248
5203 5201 5200 5199 5198 5197 5196 5195 5194 5194 5194 5193 5193 5192 5192 5193 5194 5195 5196 5197 5200 5202 5203 5204 5205 5208 5210 5212 5213 5214 5215 5216 5217 5219 5220 5222 5223 5225 5226 5228 5230 5232 5234 5236
5195 5194 5193 5192 5190 5189 5189 5188 5188 5187 5187 5186 5186 5186 5186 5187 5188 5188 5190 5192 5194 5196 5197 5197 5199 5201 5203 5203 5203 5204 5205 5206 5207 5208 5210 5211 5213 5214 5216 5217 5219 5221 5223 5226
5189 5188 5186 5184 5183 5182 5182 5182 5182 5181 5181 5180 5181 5181 5181 5182 5183 5184 5184 5186 5188 5190 5190 5191 5193 5194 5195 5194 5195 5195 5196 5197 5198 5199 5200 5202 5203 5205 5206 5208 5210 5212 5214 5216
5183 5181 5179 5177 5176 5176 5176 5176 5175 5175 5175 5175 5176 5176 5176 5177 5177 5178 5179 5180 5182 5184 5183 5184 5186 5187 5187 5186 5186 5187 5187 5188 5189 5191 5192 5193 5194 5196 5197 5199 5200 5202 5204 5206
5176 5174 5173 5171 5170 5170 5170 5170 5169 5170 5170 5171 5171 5171 5171 5172 5172 5173 5174 5174 5176 5177 5177 5178 5178 5179 5179 5179 5179 5179 5180 5181 5182 5183 5184 5185 5186 5187 5189 5190 5192 5194 5196 5197
5170 5168 5166 5166 5165 5165 5164 5163 5163 5164 5164 5165 5165 5166 5166 5166 5167 5168 5168 5169 5170 5170 5171 5171 5172 5172 5172 5172 5172 5172 5173 5173 5174 5175 5176 5177 5178 5179 5181 5182 5184 5186 5188 5189